Montreal, Quebec

2:34 AM EDT on August 17, 2017 (GMT -0400)
Montreal-Pierre Elliott Trudeau Int'l Airport

Weather History for CYUL - January, 2014

Change the Weather History Date:

Monday, January 27, 2014

  Actual Average Record
Temperature  
Mean Temperature 10 °F -  
Max Temperature 20 °F 24 °F 33 °F (2012)
Min Temperature 1 °F 8 °F -13 °F (2003)
Degree Days  
Heating Degree Days 54    
Moisture  
Dew Point 4 °F    
Average Humidity 73    
Maximum Humidity 92    
Minimum Humidity 41    
Precipitation  
Precipitation 0.16 in 0.07 in - ()
Sea Level Pressure  
Sea Level Pressure 29.60 in    
Wind  
Wind Speed 16 mph ()    
Max Wind Speed 38 mph    
Max Gust Speed 52 mph    
Visibility 4.0 miles    
Events Snow    
Averages and records for this station are not official NWS values.
T = Trace of Precipitation, MM = Missing Value Source: Averaged Metar Reports

Daily Weather History Graph

Daily Weather History Graph

Search for Another Location

Airport or City:

Trip Planner

Search our weather history database for the weather conditions in past years. The results will help you decide how hot, cold, wet, or windy it might be!

Date:

Astronomy

Jan. 27, 2014 Rise Set
Actual Time 7:21 AM EST 4:54 PM EST
Civil Twilight 6:49 AM EST 5:26 PM EST
Nautical Twilight 6:13 AM EST 6:02 PM EST
Astronomical Twilight 5:38 AM EST 6:37 PM EST
Moon 4:02 AM EST (1/27) 1:35 PM EST (1/27)
Length of Visible Light 10h 37m
Length of Day
9h 33m
Waning Crescent, 15% of the Moon is Illuminated
Jan 27
Waning Crescent
Jan 30
New
Feb 6
First Quarter
Feb 14
Full
Feb 22
Last Quarter

Hourly Weather History & Observations

Time (EST) Temp. Windchill Dew Point Humidity Pressure Visibility Wind Dir Wind Speed Gust Speed Precip Events Conditions
12:00 AM 6.8 °F -8.6 °F 1.4 °F 79% 29.69 in 8.0 mi NNE 11.5 mph - N/A Snow Light Snow
1:00 AM 7 °F - 3 °F 75% 29.62 in 2 mi NE 9.2 mph - - Snow Light Snow
1:00 AM 6.8 °F -6.9 °F 3.2 °F 85% 29.61 in 1.8 mi NE 9.2 mph - N/A Snow Light Snow
1:23 AM 6.8 °F -9.3 °F 3.2 °F 85% 29.59 in 3.0 mi NNE 12.7 mph - N/A Snow Light Snow
2:00 AM 6.8 °F -7.8 °F 3.2 °F 85% 29.59 in 3.0 mi NNE 10.4 mph - N/A Snow Light Snow
3:00 AM 5.0 °F -13.6 °F 1.4 °F 85% 29.52 in 1.5 mi NNE 16.1 mph - N/A Snow Light Snow
4:00 AM 6.8 °F -5.9 °F 3.2 °F 85% 29.49 in 6.0 mi NNE 8.1 mph - N/A Snow Light Snow
5:00 AM 6.8 °F -9.3 °F 3.2 °F 85% 29.42 in 3.0 mi NNE 12.7 mph - N/A Snow Light Snow
6:00 AM 6.8 °F -8.6 °F 5.0 °F 92% 29.37 in 2.5 mi NNE 11.5 mph - N/A Snow Light Snow
7:00 AM 7 °F - 3 °F 76% 29.32 in 1 mi North 13.8 mph - - Snow Light Snow
7:00 AM 6.8 °F -9.3 °F 3.2 °F 85% 29.32 in 1.5 mi NNE 12.7 mph - N/A Snow Light Snow
7:26 AM 6.8 °F -9.3 °F 3.2 °F 85% 29.33 in 0.8 mi NNE 12.7 mph - N/A Snow Light Snow
8:00 AM 5.0 °F -13.0 °F 1.4 °F 85% 29.31 in 0.8 mi North 15.0 mph - N/A Snow Light Snow
8:43 AM 6.8 °F -8.6 °F 3.2 °F 85% 29.32 in 1.5 mi NNE 11.5 mph - N/A Snow Light Snow
9:00 AM 6.8 °F -5.9 °F 3.2 °F 85% 29.34 in 2.0 mi North 8.1 mph - N/A Snow Light Snow
9:39 AM 6.8 °F -9.3 °F 3.2 °F 85% 29.44 in 1.0 mi West 12.7 mph - N/A Snow Light Snow
10:00 AM 8.6 °F -5.5 °F 5.0 °F 85% 29.46 in 4.0 mi West 10.4 mph - N/A Snow Light Snow
11:00 AM 17.6 °F 2.7 °F 10.4 °F 73% 29.47 in 8.0 mi SW 16.1 mph 21.9 mph N/A Snow Light Snow
11:08 AM 17.6 °F 1.7 °F 12.2 °F 79% 29.48 in 1.5 mi SW 18.4 mph 26.5 mph N/A Snow Light Snow
11:19 AM 19.4 °F -1.3 °F 14.0 °F 80% 29.49 in 0.5 mi SW 38.0 mph 46.0 mph N/A Snow Light Snow
11:24 AM 19.4 °F -0.3 °F 12.2 °F 74% 29.49 in 0.6 mi SW 33.4 mph 47.2 mph N/A Snow Light Snow
11:33 AM 19.4 °F 0.2 °F 10.4 °F 68% 29.50 in 1.2 mi WSW 31.1 mph 44.9 mph N/A Snow Light Snow
11:42 AM 19.4 °F 1.4 °F 10.4 °F 68% 29.51 in 2.0 mi SW 26.5 mph 40.3 mph N/A Snow Light Snow
12:00 PM 19.4 °F 1.4 °F 10.4 °F 68% 29.52 in 1.0 mi WSW 26.5 mph 36.8 mph N/A Snow Light Snow
12:04 PM 19.4 °F -0.6 °F 10.4 °F 68% 29.53 in 0.2 mi WSW 34.5 mph 41.4 mph N/A Snow Light Snow
12:12 PM 19.4 °F -1.1 °F 12.2 °F 74% 29.53 in 0.8 mi WSW 36.8 mph 49.5 mph N/A Snow Light Snow
12:39 PM 19.4 °F -0.3 °F 12.2 °F 74% 29.56 in 0.5 mi WSW 33.4 mph 47.2 mph N/A Snow Light Snow
12:52 PM 17.6 °F -3.1 °F 10.4 °F 73% 29.57 in 1.0 mi WSW 34.5 mph 47.2 mph N/A Snow Light Snow
1:00 PM 19 °F - 10 °F 56% 29.58 in 1 mi WSW 29.9 mph - - Snow Light Snow
1:00 PM 19.4 °F 1.4 °F 10.4 °F 68% 29.58 in 0.8 mi WSW 26.5 mph 47.2 mph N/A Snow Light Snow
1:32 PM 17.6 °F -3.3 °F 10.4 °F 73% 29.62 in 0.2 mi WSW 35.7 mph 47.2 mph N/A Snow Light Snow
1:34 PM 17.6 °F -3.3 °F 10.4 °F 73% 29.62 in 0.1 mi WSW 35.7 mph 51.8 mph N/A Snow Light Snow
1:41 PM 14.0 °F -7.1 °F 8.6 °F 79% 29.63 in 0.4 mi West 31.1 mph 51.8 mph N/A Snow Heavy Snow
1:47 PM 14.0 °F -6.8 °F 8.6 °F 79% 29.64 in 0.8 mi West 29.9 mph 40.3 mph N/A Snow Light Snow
2:00 PM 14.0 °F -6.5 °F 5.0 °F 67% 29.66 in 0.8 mi West 28.8 mph 39.1 mph N/A Snow Light Snow
2:18 PM 14.0 °F -6.2 °F 3.2 °F 62% 29.69 in 1.5 mi West 27.6 mph 41.4 mph N/A Snow Blowing Snow
2:38 PM 12.2 °F -8.6 °F 3.2 °F 67% 29.71 in 0.8 mi West 27.6 mph 36.8 mph N/A Snow Blowing Snow
3:00 PM 12.2 °F -8.2 °F 1.4 °F 62% 29.73 in 1.2 mi WSW 26.5 mph 39.1 mph N/A Snow Blowing Snow
3:15 PM 12.2 °F -7.5 °F 1.4 °F 62% 29.75 in 1.8 mi West 24.2 mph 34.5 mph N/A Snow Blowing Snow
4:00 PM 10.4 °F -11.4 °F -0.4 °F 62% 29.79 in 2.0 mi WSW 28.8 mph 34.5 mph N/A Snow Blowing Snow
4:07 PM 10.4 °F -9.1 °F -0.4 °F 62% 29.79 in 4.0 mi West 21.9 mph 38.0 mph N/A Snow Blowing Snow
5:00 PM 8.6 °F -10.5 °F -2.2 °F 62% 29.83 in 15.0 mi West 19.6 mph 28.8 mph N/A Snow Low Drifting Snow
6:00 PM 6.8 °F -10.7 °F -4.0 °F 61% 29.87 in 15.0 mi West 15.0 mph 25.3 mph N/A   Partly Cloudy
7:00 PM 6 °F - -7 °F 41% 29.90 in 15 mi West 8.1 mph - -   Partly Cloudy
7:00 PM 6.8 °F -5.9 °F -5.8 °F 56% 29.90 in 15.0 mi West 8.1 mph - N/A   Partly Cloudy
8:00 PM 6.8 °F -7.8 °F -7.6 °F 52% 29.92 in 15.0 mi West 10.4 mph - N/A   Partly Cloudy
9:00 PM 3.2 °F -11.3 °F -7.6 °F 61% 29.95 in 15.0 mi SW 9.2 mph - N/A   Scattered Clouds
10:00 PM 1.4 °F -12.5 °F -7.6 °F 66% 29.96 in 15.0 mi WSW 8.1 mph - N/A   Partly Cloudy
11:00 PM 1.4 °F -12.5 °F -5.8 °F 72% 29.98 in 15.0 mi SW 8.1 mph - N/A   Mostly Cloudy